Regional Weather Roundup
Issued by NWS

Home | Current Version | Previous Version | Text Only | Print | Product List | Glossary On
Versions: 1 2 3 4 5 6 7 8 9 10 11 12 13 14 15 16 17 18 19 20 21 22 23 24 25 26 27 28 29 30 31 32 33 34 35 36 37 38 39 40 41 42 43 44 45 46 47 48 49 50
000
ASUS43 KDTX 271310
RWRMI
MICHIGAN HOURLY REGIONAL WEATHER ROUNDUP
NATIONAL WEATHER SERVICE DETROIT/PONTIAC MI
900 AM EDT MON JUN 27 2022

NOTE: "FAIR" INDICATES FEW OR NO CLOUDS BELOW 12,000 FEET WITH NO
SIGNIFICANT WEATHER AND/OR OBSTRUCTION TO VISIBILITY.

MIZ047>049-052>055-059>063-066>070-074>076-081>083-271400-
SOUTHEAST LOWER MICHIGAN

CITY           SKY/WX    TMP DP  RH WIND       PRES   REMARKS
ADRIAN         SUNNY     64  45  49 NW8       30.17R
ALMA           SUNNY     62  45  52 W12       30.14R
ANN ARBOR      SUNNY     64  44  48 NW8       30.15R
BAD AXE        PTSUNNY   62  46  57 W14       30.08R
CARO           SUNNY     62  44  51 W10G17    30.10S
DETROIT CITY   SUNNY     68  40  35 NW13G24   30.13R
DETROIT        MOSUNNY   65  43  44 NW12      30.14S
FLINT          SUNNY     63  45  51 NW14G24   30.13R
GROSSE ILE     MOSUNNY   66  44  45 NW13      30.13S
HILLSDALE      CLOUDY    62  43  49 NW7       30.18R
HOWELL         SUNNY     63  42  46 NW9G20    30.15R

CITY           SKY/WX    TMP DP  RH WIND       PRES   REMARKS
JACKSON        SUNNY     64  45  49 W8        30.16S
LAMBERTVILLE   SUNNY     66  46  48 NW12      30.15S
LANSING        SUNNY     65  47  52 W12       30.16R
LAPEER         SUNNY     62  43  49 W14       30.12R
MASON          SUNNY     63  46  54 NW9       30.16R
MONROE         SUNNY     65  47  51 NW12      30.14S
MT. CLEMENS    SUNNY     65  47  51 NW16      30.09R
PONTIAC        SUNNY     63  42  46 NW12G22   30.12S
PORT HOPE        N/A     62  33  33 W15G24    30.06R
PORT HURON     SUNNY     63  45  51 NW8       30.10S
TRI CITIES     SUNNY     62  46  55 W10       30.12S
MIDLAND        SUNNY     63  44  50 NW9       30.11S
TROY           SUNNY     65  35  33 NW7G20    30.14S
SAGINAW HB     SUNNY     63  44  50 NW14G20   30.11S
$$
MIZ043>046-050>051-056>058-064>065-071>073-077>080-271400-
SOUTHWEST LOWER MICHIGAN

CITY           SKY/WX    TMP DP  RH WIND       PRES   REMARKS
BATTLE CREEK   SUNNY     64  47  53 NW6       30.18R
BENTON HARBOR  SUNNY     67  52  58 NW9G18    30.19R
BIG RAPIDS     SUNNY     60  47  60 NW12G18   30.14S
COLDWATER      SUNNY     64  47  54 NW5       30.18S
FREMONT        FAIR      62  46  55 NW12      30.16R
HOLLAND        SUNNY     66  45  46 NW12      30.18R
GRAND RAPIDS   MOSUNNY   65  42  43 NW13      30.17R
IONIA          FAIR      64  46  51 W12       30.15R
KALAMAZOO      SUNNY     66  46  48 NW6       30.18S
LUDINGTON      SUNNY     61  47  60 NW9       30.16R
MARSHALL       SUNNY     63  46  53 NW7       30.17R
MOUNT PLEASANT SUNNY     61  46  58 W12       30.11S
MUSKEGON       MOSUNNY   68  47  46 NW9G21    30.17R
SOUTH HAVEN    SUNNY     65  50  58 NW8       30.19R
$$
MIZ016>042-271400-
NORTHERN LOWER MICHIGAN

CITY           SKY/WX    TMP DP  RH WIND       PRES   REMARKS
ALPENA         PTSUNNY   59  47  64 W8G21     30.04R
BEAVER ISLAND  PTSUNNY   56  46  70 NW9G20    30.12R
BELLAIRE       CLOUDY    55  47  72 W8        30.12R
CADILLAC       PTSUNNY   58  46  62 W10       30.12R
CHARLEVOIX     CLOUDY    56  49  77 NW15G21   30.11R
FRANKFORT      CLOUDY    57  47  69 NW12      30.15R
GAYLORD        CLOUDY    55  45  68 W10G18    30.08R
HARBOR SPRINGS CLOUDY    56  47  71 NW13G20   30.09R
HOUGHTON LAKE  PTSUNNY   58  45  62 NW13G23   30.11R
MANISTEE       SUNNY     59  46  62 NW12G24   30.16R
OSCODA         SUNNY     62  46  53 W14G20    30.06R
PELLSTON       CLOUDY    57  46  66 NW18G29   30.08R
ROGERS CITY    CLOUDY    56  47  71 W12G22    30.05R
TRAVERSE CITY  CLOUDY    59  46  62 NW15G22   30.12R
$$
MIZ007>008-015-271400-
EASTERN UPPER MICHIGAN

CITY           SKY/WX    TMP DP  RH WIND       PRES   REMARKS
KINROSS        CLOUDY    52  47  83 W16       30.05R
MACKINAC ISLAN CLOUDY    54  47  76 W9G20     30.06R
NEWBERRY       CLOUDY    50  47  90 W13G18    30.08R FOG
S. S. MARIE    CLOUDY    49  45  86 W12G21    30.03R
$$
MIZ004>006-011>014-085-271400-
CENTRAL UPPER MICHIGAN

CITY           SKY/WX    TMP DP  RH WIND       PRES   REMARKS
MANISTIQUE     CLOUDY    54  45  71 NW16G23   30.11R
ESCANABA       PTSUNNY   56  45  66 NW15      30.14R
MENOMINEE      SUNNY     57  46  66 NW8G20    30.17R
SAWYER-GWINN   PTSUNNY   54  43  66 NW16G23   30.14R
MUNISING         N/A     51  45  79 NW14G24   30.13R
$$
MIZ001>003-009>011-084-271400-
WESTERN UPPER MICHIGAN

CITY           SKY/WX    TMP DP  RH WIND       PRES   REMARKS
IRON MOUNTAIN  CLOUDY    54  44  69 NW15G25   30.16R
HOUGHTON       MOSUNNY   53  42  66 NW10      30.17R
COPPER HARBOR    N/A     52  45  77 N16G23    30.14R
IRONWOOD       MOSUNNY   52  45  77 NW7       30.24R
$$

ABBREVIATIONS USED IN REMARKS
   TC - TEMPERATURE IN CELSIUS
  WCI - WIND CHILL INDEX
   HX - HEAT INDEX
  VSB - VISIBILITY




USA.gov is the U.S. government's official web portal to all federal, state and local government web resources and services.